,,Stat5,,Stat1,,Stat2,,Stat3,,Stat4,,Wind1,,Wind1,
time,status,PA1M_AVG,status,PR1M_SUM,status,RH1M_AVG,status,SR1M_AVG,status,TA1M_AVG,status,W1dAve1m,status,W1sAve1m,
2000-10-22, 00:00:00,VALID,918.106,VALID,0,VALID,92.8729,VALID,0.0169808,VALID,20.2631,VALID,93,VALID,1.57071,
2000-10-22, 00:01:00,VALID,918.071,VALID,0,VALID,92.8564,VALID,0.0169808,VALID,20.2311,VALID,89,VALID,1.91981,
2000-10-22, 00:02:00,VALID,918.009,VALID,0,VALID,92.9479,VALID,-0.101885,VALID,20.2269,VALID,87,VALID,1.44067,
2000-10-22, 00:03:00,VALID,918.017,VALID,0,VALID,93.0255,VALID,-0.101885,VALID,20.2008,VALID,81,VALID,1.77444,
2000-10-22, 00:04:00,VALID,917.986,VALID,0,VALID,92.7928,VALID,-0.0849042,VALID,20.1846,VALID,97,VALID,1.44512,
2000-10-22, 00:05:00,VALID,917.952,VALID,0,VALID,92.7292,VALID,-0.0849042,VALID,20.1839,VALID,98,VALID,1.50115,
2000-10-22, 00:06:00,VALID,918.013,VALID,0,VALID,92.9467,VALID,-0.0849042,VALID,20.2102,VALID,123,VALID,0.752604,
2000-10-22, 00:07:00,VALID,918.035,VALID,0,VALID,92.4495,VALID,-0.101885,VALID,20.2169,VALID,199,VALID,1.06871,
2000-10-22, 00:08:00,VALID,918.014,VALID,0,VALID,92.3961,VALID,-0.0849042,VALID,20.207,VALID,75,VALID,1.70092,
2000-10-22, 00:09:00,VALID,918.008,VALID,0,VALID,92.5982,VALID,-0.101885,VALID,20.1876,VALID,334,VALID,0.904848,
2000-10-22, 00:10:00,VALID,918.064,VALID,0,VALID,92.3668,VALID,-0.101885,VALID,20.1941,VALID,94,VALID,1.61502,
2000-10-22, 00:11:00,VALID,918.059,VALID,0,VALID,92.4253,VALID,-0.0679233,VALID,20.1841,VALID,79,VALID,1.21114,
2000-10-22, 00:12:00,VALID,918.057,VALID,0,VALID,92.082,VALID,-0.0679233,VALID,20.1908,VALID,332,VALID,0.670436,
2000-10-22, 00:13:00,VALID,918.026,VALID,0,VALID,91.6929,VALID,-0.101885,VALID,20.2102,VALID,63,VALID,0.76028,
2000-10-22, 00:14:00,VALID,918.052,VALID,0,VALID,90.6667,VALID,-0.101885,VALID,20.2363,VALID,57,VALID,2.3636,
2000-10-22, 00:15:00,VALID,918.031,VALID,0,VALID,90.022,VALID,-0.0679233,VALID,20.3231,VALID,68,VALID,0.826014,
2000-10-22, 00:16:00,VALID,918.075,VALID,0,VALID,90.9032,VALID,-0.101885,VALID,20.3556,VALID,95,VALID,1.49576,
2000-10-22, 00:17:00,VALID,918.069,VALID,0,VALID,91.2414,VALID,-0.0679233,VALID,20.3432,VALID,97,VALID,0.467014,
2000-10-22, 00:18:00,VALID,918.05,VALID,0,VALID,91.3979,VALID,-0.101885,VALID,20.3072,VALID,108,VALID,1.01703,
2000-10-22, 00:19:00,VALID,918.023,VALID,0,VALID,91.0761,VALID,-0.0849042,VALID,20.3072,VALID,264,VALID,0.959498,
2000-10-22, 00:20:00,VALID,917.978,VALID,0,VALID,91.0723,VALID,-0.0849042,VALID,20.3136,VALID,201,VALID,0.60773,
2000-10-22, 00:21:00,VALID,917.963,VALID,0,VALID,91.1906,VALID,-0.0679233,VALID,20.3104,VALID,164,VALID,0.453125,
2000-10-22, 00:22:00,VALID,917.93,VALID,0,VALID,91.5492,VALID,-0.0849042,VALID,20.3042,VALID,112,VALID,0.438101,
2000-10-22, 00:23:00,VALID,917.92,VALID,0,VALID,91.7831,VALID,-0.101885,VALID,20.2716,VALID,38,VALID,0.992378,
2000-10-22, 00:24:00,VALID,917.945,VALID,0,VALID,91.8582,VALID,-0.101885,VALID,20.2622,VALID,217,VALID,0.492578,
2000-10-22, 00:25:00,VALID,917.93,VALID,0,VALID,91.8531,VALID,-0.0849042,VALID,20.2557,VALID,90,VALID,0.736111,
2000-10-22, 00:26:00,VALID,917.943,VALID,0,VALID,91.6496,VALID,-0.101885,VALID,20.2458,VALID,203,VALID,0.641276,
2000-10-22, 00:27:00,VALID,917.941,VALID,0,VALID,91.5466,VALID,-0.0849042,VALID,20.2627,VALID,113,VALID,1.40603,
2000-10-22, 00:28:00,VALID,917.959,VALID,0,VALID,91.9688,VALID,-0.118866,VALID,20.2684,VALID,112,VALID,1.10341,
2000-10-22, 00:29:00,VALID,917.911,VALID,0,VALID,91.4652,VALID,-0.0849042,VALID,20.259,VALID,128,VALID,1.1212,
2000-10-22, 00:30:00,VALID,917.952,VALID,0,VALID,90.6285,VALID,-0.0849042,VALID,20.2652,VALID,263,VALID,1.0617,
2000-10-22, 00:31:00,VALID,917.981,VALID,0,VALID,90.8994,VALID,-0.0849042,VALID,20.3166,VALID,9,VALID,0.905078,
2000-10-22, 00:32:00,VALID,918.001,VALID,0,VALID,91.0469,VALID,0.0169808,VALID,20.3382,VALID,26,VALID,0.869945,
2000-10-22, 00:33:00,VALID,917.988,VALID,0,VALID,90.4302,VALID,0,VALID,20.3347,VALID,328,VALID,1.15124,
2000-10-22, 00:34:00,VALID,917.956,VALID,0,VALID,90.5789,VALID,0.0169808,VALID,20.3509,VALID,74,VALID,1.89623,
2000-10-22, 00:35:00,VALID,918.007,VALID,0,VALID,90.3513,VALID,0,VALID,20.3509,VALID,115,VALID,1.19892,
2000-10-22, 00:36:00,VALID,917.956,VALID,0,VALID,90.6463,VALID,0,VALID,20.3805,VALID,127,VALID,0.972039,
2000-10-22, 00:37:00,VALID,917.957,VALID,0,VALID,90.5484,VALID,0,VALID,20.3703,VALID,175,VALID,0.657517,
2000-10-22, 00:38:00,VALID,917.919,VALID,0,VALID,90.9452,VALID,0,VALID,20.3703,VALID,45,VALID,1.04536,
2000-10-22, 00:39:00,VALID,917.939,VALID,0,VALID,89.8681,VALID,0.0169808,VALID,20.3735,VALID,327,VALID,1.80689,
2000-10-22, 00:40:00,VALID,917.875,VALID,0,VALID,89.521,VALID,0.0169808,VALID,20.4093,VALID,232,VALID,1.48574,
2000-10-22, 00:41:00,VALID,917.848,VALID,0,VALID,89.4904,VALID,0.0339617,VALID,20.4381,VALID,226,VALID,1.11879,
2000-10-22, 00:42:00,VALID,917.829,VALID,0,VALID,89.3289,VALID,0.0339617,VALID,20.4578,VALID,23,VALID,1.04587,
2000-10-22, 00:43:00,VALID,917.809,VALID,0,VALID,89.5299,VALID,0.0339617,VALID,20.4478,VALID,318,VALID,0.405382,
2000-10-22, 00:44:00,VALID,917.799,VALID,0,VALID,89.4116,VALID,0,VALID,20.4414,VALID,273,VALID,1.23746,
2000-10-22, 00:45:00,VALID,917.746,VALID,0,VALID,89.2794,VALID,0,VALID,20.4505,VALID,188,VALID,1.63117,
2000-10-22, 00:46:00,VALID,917.706,VALID,0,VALID,88.758,VALID,0,VALID,20.4704,VALID,316,VALID,2.49548,
2000-10-22, 00:47:00,VALID,917.699,VALID,0,VALID,88.538,VALID,0.0169808,VALID,20.5027,VALID,348,VALID,1.78188,
2000-10-22, 00:48:00,VALID,917.704,VALID,0,VALID,89.1535,VALID,0.0169808,VALID,20.4965,VALID,25,VALID,0.86212,
2000-10-22, 00:49:00,VALID,917.68,VALID,0,VALID,89.3963,VALID,0,VALID,20.4737,VALID,79,VALID,2.04799,
2000-10-22, 00:50:00,VALID,917.58,VALID,0,VALID,89.5082,VALID,0,VALID,20.4448,VALID,141,VALID,1.12956,
2000-10-22, 00:51:00,VALID,917.628,VALID,0,VALID,89.6469,VALID,0.0169808,VALID,20.4255,VALID,264,VALID,0.874599,
2000-10-22, 00:52:00,VALID,917.6,VALID,0,VALID,89.596,VALID,0,VALID,20.409,VALID,319,VALID,1.2465,
2000-10-22, 00:53:00,VALID,917.586,VALID,0,VALID,90.0347,VALID,0.0169808,VALID,20.4056,VALID,109,VALID,1.74548,
2000-10-22, 00:54:00,VALID,917.539,VALID,0,VALID,90.2102,VALID,0.0679233,VALID,20.409,VALID,337,VALID,0.382366,
2000-10-22, 00:55:00,VALID,917.543,VALID,0,VALID,90.4785,VALID,0,VALID,20.4028,VALID,189,VALID,0.258213,
2000-10-22, 00:56:00,VALID,917.518,VALID,0,VALID,90.3844,VALID,0,VALID,20.3802,VALID,255,VALID,0.936738,
2000-10-22, 00:57:00,VALID,917.516,VALID,0,VALID,90.0728,VALID,0,VALID,20.3608,VALID,110,VALID,1.24746,
2000-10-22, 00:58:00,VALID,917.5,VALID,0,VALID,90.729,VALID,0.0509425,VALID,20.3434,VALID,87,VALID,0.75,
2000-10-22, 00:59:00,VALID,917.501,VALID,0,VALID,91.0558,VALID,0.0509425,VALID,20.3146,VALID,103,VALID,0.761719,
2000-10-22, 01:00:00,VALID,917.488,VALID,0,VALID,91.6127,VALID,0.0509425,VALID,20.289,VALID,89,VALID,0.641518,
2000-10-22, 01:01:00,VALID,917.489,VALID,0,VALID,92.1189,VALID,0.0509425,VALID,20.2569,VALID,94,VALID,0.594572,
2000-10-22, 01:02:00,VALID,917.505,VALID,0,VALID,92.0337,VALID,0.0169808,VALID,20.2077,VALID,93,VALID,1.11972,
2000-10-22, 01:03:00,VALID,917.496,VALID,0,VALID,92.0578,VALID,0.0339617,VALID,20.1751,VALID,96,VALID,1.19752,
2000-10-22, 01:04:00,VALID,917.503,VALID,0,VALID,91.773,VALID,0.0169808,VALID,20.1568,VALID,64,VALID,1.37227,
2000-10-22, 01:05:00,VALID,917.502,VALID,0,VALID,91.7043,VALID,0.0169808,VALID,20.1247,VALID,92,VALID,1.41406,
2000-10-22, 01:06:00,VALID,917.531,VALID,0,VALID,91.7132,VALID,0.0169808,VALID,20.115,VALID,90,VALID,0.540665,
2000-10-22, 01:07:00,VALID,917.518,VALID,0,VALID,91.8162,VALID,0.0169808,VALID,20.1115,VALID,97,VALID,1.4988,
2000-10-22, 01:08:00,VALID,917.516,VALID,0,VALID,92.0197,VALID,0,VALID,20.1046,VALID,104,VALID,0.761218,
2000-10-22, 01:09:00,VALID,917.492,VALID,0,VALID,91.9574,VALID,0.0339617,VALID,20.0919,VALID,254,VALID,0.365132,
2000-10-22, 01:10:00,VALID,917.474,VALID,0,VALID,91.7399,VALID,0.0339617,VALID,20.0782,VALID,105,VALID,1.15456,
2000-10-22, 01:11:00,VALID,917.383,VALID,0,VALID,90.9452,VALID,0.0509425,VALID,20.1185,VALID,296,VALID,0.55599,
2000-10-22, 01:12:00,VALID,917.453,VALID,0,VALID,90.7341,VALID,0,VALID,20.1247,VALID,172,VALID,0.993389,
2000-10-22, 01:13:00,VALID,917.447,VALID,0,VALID,90.3297,VALID,0,VALID,20.1339,VALID,95,VALID,1.71992,
2000-10-22, 01:14:00,VALID,917.435,VALID,0,VALID,90.5802,VALID,0.0169808,VALID,20.1471,VALID,351,VALID,0.473558,
2000-10-22, 01:15:00,VALID,917.44,VALID,0,VALID,91.0952,VALID,0,VALID,20.15,VALID,352,VALID,0.495793,
2000-10-22, 01:16:00,VALID,917.512,VALID,0,VALID,91.2923,VALID,0.0169808,VALID,20.1535,VALID,163,VALID,0.617405,
2000-10-22, 01:17:00,VALID,917.454,VALID,0,VALID,91.5632,VALID,0.0169808,VALID,20.1341,VALID,93,VALID,1.40748,
2000-10-22, 01:18:00,VALID,917.446,VALID,0,VALID,91.9523,VALID,0.0339617,VALID,20.1046,VALID,98,VALID,1.81476,
2000-10-22, 01:19:00,VALID,917.442,VALID,0,VALID,92.1697,VALID,0.0339617,VALID,20.0822,VALID,77,VALID,1.67188,
2000-10-22, 01:20:00,VALID,917.45,VALID,0,VALID,91.8048,VALID,0,VALID,20.0631,VALID,290,VALID,0.47234,
2000-10-22, 01:21:00,VALID,917.451,VALID,0,VALID,91.1829,VALID,0,VALID,20.0563,VALID,264,VALID,0.416174,
2000-10-22, 01:22:00,VALID,917.456,VALID,0,VALID,91.4589,VALID,0.0169808,VALID,20.0857,VALID,71,VALID,1.14219,
2000-10-22, 01:23:00,VALID,917.476,VALID,0,VALID,91.2834,VALID,0.0339617,VALID,20.0983,VALID,84,VALID,1.03212,
2000-10-22, 01:24:00,VALID,917.474,VALID,0,VALID,91.0532,VALID,0.0169808,VALID,20.1215,VALID,158,VALID,0.554888,
2000-10-22, 01:25:00,VALID,917.483,VALID,0,VALID,91.4385,VALID,0,VALID,20.1274,VALID,88,VALID,1.23623,
2000-10-22, 01:26:00,VALID,917.457,VALID,0,VALID,91.3686,VALID,0.0169808,VALID,20.1376,VALID,292,VALID,0.59375,
2000-10-22, 01:27:00,VALID,917.479,VALID,0,VALID,91.0672,VALID,0.0509425,VALID,20.1511,VALID,144,VALID,0.42567,
2000-10-22, 01:28:00,VALID,917.488,VALID,0,VALID,91.4602,VALID,0.0169808,VALID,20.1438,VALID,100,VALID,0.608373,
2000-10-22, 01:29:00,VALID,917.463,VALID,0,VALID,91.6433,VALID,0.0339617,VALID,20.1344,VALID,108,VALID,1.30907,
2000-10-22, 01:30:00,VALID,917.431,VALID,0,VALID,91.4869,VALID,0.0339617,VALID,20.0981,VALID,321,VALID,0.69375,
2000-10-22, 01:31:00,VALID,917.479,VALID,0,VALID,91.5797,VALID,0.0169808,VALID,20.1056,VALID,267,VALID,0.413628,
2000-10-22, 01:32:00,VALID,917.464,VALID,0,VALID,91.4754,VALID,-0.0339617,VALID,20.1262,VALID,297,VALID,0.47678,
2000-10-22, 01:33:00,VALID,917.456,VALID,0,VALID,91.4411,VALID,-0.0849042,VALID,20.122,VALID,262,VALID,0.606027,
2000-10-22, 01:34:00,VALID,917.461,VALID,0,VALID,91.759,VALID,-0.0679233,VALID,20.1357,VALID,22,VALID,0.527344,
2000-10-22, 01:35:00,VALID,917.471,VALID,0,VALID,91.5326,VALID,-0.0679233,VALID,20.126,VALID,92,VALID,1.45798,
2000-10-22, 01:36:00,VALID,917.409,VALID,0,VALID,90.8053,VALID,-0.0509425,VALID,20.1262,VALID,287,VALID,0.694111,
2000-10-22, 01:37:00,VALID,917.462,VALID,0,VALID,90.5866,VALID,-0.0849042,VALID,20.1446,VALID,301,VALID,0.436328,
2000-10-22, 01:38:00,VALID,917.46,VALID,0,VALID,90.5421,VALID,-0.0679233,VALID,20.1772,VALID,38,VALID,0.696461,
2000-10-22, 01:39:00,VALID,917.428,VALID,0,VALID,90.8193,VALID,-0.0509425,VALID,20.2067,VALID,94,VALID,1.32933,
2000-10-22, 01:40:00,VALID,917.389,VALID,0,VALID,90.7061,VALID,-0.0509425,VALID,20.2261,VALID,256,VALID,0.432091,
2000-10-22, 01:41:00,VALID,917.393,VALID,0,VALID,90.5179,VALID,-0.0849042,VALID,20.2164,VALID,131,VALID,0.395633,
2000-10-22, 01:42:00,VALID,917.353,VALID,0,VALID,90.9299,VALID,-0.0339617,VALID,20.2097,VALID,95,VALID,0.99301,
2000-10-22, 01:43:00,VALID,917.365,VALID,0,VALID,91.0354,VALID,-0.0679233,VALID,20.2194,VALID,164,VALID,0.541596,
2000-10-22, 01:44:00,VALID,917.365,VALID,0,VALID,90.5802,VALID,-0.0509425,VALID,20.203,VALID,270,VALID,0.971137,
2000-10-22, 01:45:00,VALID,916.928,VALID,0,VALID,89.8821,VALID,-0.0849042,VALID,20.203,VALID,305,VALID,0.989984,
2000-10-22, 01:46:00,VALID,917.332,VALID,0,VALID,90.0677,VALID,-0.0679233,VALID,20.2261,VALID,323,VALID,0.41875,
2000-10-22, 01:47:00,VALID,917.334,VALID,0,VALID,90.0194,VALID,-0.0679233,VALID,20.2358,VALID,329,VALID,0.527244,
2000-10-22, 01:48:00,VALID,917.302,VALID,0,VALID,90.8002,VALID,-0.0679233,VALID,20.2194,VALID,35,VALID,0.651442,
2000-10-22, 01:49:00,VALID,917.328,VALID,0,VALID,90.5599,VALID,-0.0849042,VALID,20.1704,VALID,68,VALID,1.16016,
2000-10-22, 01:50:00,VALID,917.312,VALID,0,VALID,90.5103,VALID,-0.0509425,VALID,20.1841,VALID,99,VALID,0.957854,
2000-10-22, 01:51:00,VALID,917.308,VALID,0,VALID,90.556,VALID,-0.101885,VALID,20.2073,VALID,89,VALID,0.833676,
2000-10-22, 01:52:00,VALID,917.294,VALID,0,VALID,90.4378,VALID,-0.0679233,VALID,20.2105,VALID,281,VALID,0.0419408,
2000-10-22, 01:53:00,VALID,917.256,VALID,0,VALID,90.434,VALID,-0.0849042,VALID,20.1938,VALID,119,VALID,0.552576,
2000-10-22, 01:54:00,VALID,917.226,VALID,0,VALID,90.5624,VALID,-0.0849042,VALID,20.1908,VALID,156,VALID,0.414485,
2000-10-22, 01:55:00,VALID,917.229,VALID,0,VALID,89.7702,VALID,-0.0679233,VALID,20.1677,VALID,248,VALID,0.787946,
2000-10-22, 01:56:00,VALID,917.193,VALID,0,VALID,89.6443,VALID,-0.0679233,VALID,20.2075,VALID,303,VALID,1.20725,
2000-10-22, 01:57:00,VALID,917.218,VALID,0,VALID,89.8579,VALID,-0.0849042,VALID,20.2237,VALID,255,VALID,0.713942,
2000-10-22, 01:58:00,VALID,917.147,VALID,0,VALID,88.3396,VALID,-0.0849042,VALID,20.2455,VALID,218,VALID,2.3308,
2000-10-22, 01:59:00,VALID,917.141,VALID,0,VALID,88.1438,VALID,-0.0849042,VALID,20.3039,VALID,108,VALID,1.50164,
2000-10-22, 02:00:00,VALID,917.092,VALID,0,VALID,87.8666,VALID,-0.0849042,VALID,20.3104,VALID,318,VALID,1.13906,
2000-10-22, 02:01:00,VALID,917.109,VALID,0,VALID,88.0027,VALID,-0.101885,VALID,20.3263,VALID,99,VALID,1.30909,
2000-10-22, 02:02:00,VALID,917.099,VALID,0,VALID,87.6492,VALID,-0.0509425,VALID,20.3335,VALID,269,VALID,0.496761,
2000-10-22, 02:03:00,VALID,917.112,VALID,0,VALID,87.9734,VALID,-0.101885,VALID,20.3397,VALID,259,VALID,0.501172,
2000-10-22, 02:04:00,VALID,917.104,VALID,0,VALID,88.2913,VALID,-0.101885,VALID,20.3397,VALID,164,VALID,0.254123,
2000-10-22, 02:05:00,VALID,917.131,VALID,0,VALID,88.7682,VALID,-0.0509425,VALID,20.3392,VALID,179,VALID,0.373915,
2000-10-22, 02:06:00,VALID,917.09,VALID,0,VALID,88.2392,VALID,-0.0849042,VALID,20.3233,VALID,113,VALID,1.21518,
2000-10-22, 02:07:00,VALID,917.076,VALID,0,VALID,87.8501,VALID,-0.0679233,VALID,20.3161,VALID,130,VALID,1.33183,
2000-10-22, 02:08:00,VALID,917.081,VALID,0,VALID,88.1057,VALID,-0.0509425,VALID,20.3136,VALID,296,VALID,0.576858,
2000-10-22, 02:09:00,VALID,917.079,VALID,0,VALID,88.0764,VALID,-0.0679233,VALID,20.2878,VALID,236,VALID,0.353766,
2000-10-22, 02:10:00,VALID,917.041,VALID,0,VALID,87.3707,VALID,-0.0339617,VALID,20.2875,VALID,215,VALID,1.02051,
2000-10-22, 02:11:00,VALID,916.981,VALID,0,VALID,87.962,VALID,-0.0509425,VALID,20.2972,VALID,90,VALID,1.04756,
2000-10-22, 02:12:00,VALID,916.96,VALID,0,VALID,88.182,VALID,-0.0849042,VALID,20.2749,VALID,280,VALID,0.461538,
2000-10-22, 02:13:00,VALID,916.97,VALID,0,VALID,88.6372,VALID,-0.101885,VALID,20.2552,VALID,131,VALID,0.489183,
2000-10-22, 02:14:00,VALID,916.932,VALID,0,VALID,89.039,VALID,-0.0509425,VALID,20.2401,VALID,64,VALID,0.160457,
2000-10-22, 02:15:00,VALID,916.918,VALID,0,VALID,89.1942,VALID,-0.101885,VALID,20.2043,VALID,174,VALID,0,
2000-10-22, 02:16:00,VALID,916.909,VALID,0,VALID,88.6067,VALID,-0.0339617,VALID,20.1516,VALID,89,VALID,0.952914,
2000-10-22, 02:17:00,VALID,916.9,VALID,0,VALID,89.76,VALID,0.0339617,VALID,20.122,VALID,103,VALID,1.42969,
2000-10-22, 02:18:00,VALID,916.877,VALID,0,VALID,90.0449,VALID,0,VALID,20.0442,VALID,320,VALID,0.482572,
2000-10-22, 02:19:00,VALID,916.868,VALID,0,VALID,90.0169,VALID,0.0339617,VALID,20.0057,VALID,272,VALID,0.195508,
2000-10-22, 02:20:00,VALID,916.883,VALID,0,VALID,90.2788,VALID,0,VALID,19.9828,VALID,122,VALID,0.763421,
2000-10-22, 02:21:00,VALID,916.846,VALID,0,VALID,90.3259,VALID,0.0169808,VALID,19.9704,VALID,175,VALID,0.159655,
2000-10-22, 02:22:00,VALID,916.861,VALID,0,VALID,90.5243,VALID,0.0849042,VALID,19.9731,VALID,108,VALID,0.723307,
2000-10-22, 02:23:00,VALID,916.845,VALID,0,VALID,90.4963,VALID,0.0339617,VALID,19.9567,VALID,80,VALID,0.652549,
2000-10-22, 02:24:00,VALID,916.841,VALID,0,VALID,90.8511,VALID,0.0339617,VALID,19.9311,VALID,99,VALID,0.796875,
2000-10-22, 02:25:00,VALID,916.822,VALID,0,VALID,90.8994,VALID,0.0849042,VALID,19.9284,VALID,89,VALID,0.89741,
2000-10-22, 02:26:00,VALID,916.834,VALID,0,VALID,91.2783,VALID,0,VALID,19.8859,VALID,94,VALID,0.857264,
2000-10-22, 02:27:00,VALID,916.856,VALID,0,VALID,91.5365,VALID,0.0169808,VALID,19.8506,VALID,130,VALID,0.415963,
2000-10-22, 02:28:00,VALID,916.846,VALID,0,VALID,91.4716,VALID,0.0169808,VALID,19.8282,VALID,81,VALID,0.898884,
2000-10-22, 02:29:00,VALID,916.843,VALID,0,VALID,91.3801,VALID,0.0169808,VALID,19.8183,VALID,82,VALID,1.01194,
2000-10-22, 02:30:00,VALID,916.859,VALID,0,VALID,91.3991,VALID,0.0169808,VALID,19.7956,VALID,89,VALID,0.755208,
2000-10-22, 02:31:00,VALID,916.882,VALID,0,VALID,91.5988,VALID,0,VALID,19.773,VALID,94,VALID,1.00329,
2000-10-22, 02:32:00,VALID,916.872,VALID,0,VALID,92.007,VALID,0.0169808,VALID,19.7504,VALID,87,VALID,0.885691,
2000-10-22, 02:33:00,VALID,916.889,VALID,0,VALID,92.3249,VALID,0.0169808,VALID,19.7112,VALID,92,VALID,0.902232,
2000-10-22, 02:34:00,VALID,916.894,VALID,0,VALID,92.302,VALID,0,VALID,19.7027,VALID,114,VALID,0.678686,
2000-10-22, 02:35:00,VALID,916.883,VALID,0,VALID,91.8531,VALID,0,VALID,19.7082,VALID,72,VALID,0.583651,
2000-10-22, 02:36:00,VALID,916.887,VALID,0,VALID,91.6738,VALID,0.0339617,VALID,19.7541,VALID,6,VALID,0.0478516,
2000-10-22, 02:37:00,VALID,916.867,VALID,0,VALID,91.642,VALID,0,VALID,19.773,VALID,292,VALID,0.152127,
2000-10-22, 02:38:00,VALID,916.855,VALID,0,VALID,91.6484,VALID,0,VALID,19.7795,VALID,182,VALID,0.162109,
2000-10-22, 02:39:00,VALID,916.862,VALID,0,VALID,91.7412,VALID,0,VALID,19.783,VALID,102,VALID,0.514286,
2000-10-22, 02:40:00,VALID,916.837,VALID,0,VALID,91.7742,VALID,0.0169808,VALID,19.7633,VALID,88,VALID,1.03146,
2000-10-22, 02:41:00,VALID,916.844,VALID,0,VALID,92.1672,VALID,0,VALID,19.7544,VALID,106,VALID,0.79603,
2000-10-22, 02:42:00,VALID,916.832,VALID,0,VALID,92.3859,VALID,0.0169808,VALID,19.7412,VALID,77,VALID,0.414864,
2000-10-22, 02:43:00,VALID,916.856,VALID,0,VALID,92.2625,VALID,0.0339617,VALID,19.7348,VALID,111,VALID,0.364062,
2000-10-22, 02:44:00,VALID,916.844,VALID,0,VALID,92.3147,VALID,0.0339617,VALID,19.7186,VALID,87,VALID,0.626379,
2000-10-22, 02:45:00,VALID,916.846,VALID,0,VALID,92.5703,VALID,0.0169808,VALID,19.696,VALID,88,VALID,0.369191,
2000-10-22, 02:46:00,VALID,916.839,VALID,0,VALID,92.6377,VALID,0,VALID,19.6699,VALID,90,VALID,1.09836,
2000-10-22, 02:47:00,VALID,916.829,VALID,0,VALID,92.5893,VALID,0,VALID,19.657,VALID,86,VALID,0.919471,
2000-10-22, 02:48:00,VALID,916.848,VALID,0,VALID,92.7903,VALID,0.0339617,VALID,19.6508,VALID,91,VALID,0.895148,
2000-10-22, 02:49:00,VALID,916.825,VALID,0,VALID,92.9746,VALID,0,VALID,19.6349,VALID,90,VALID,1.10135,
2000-10-22, 02:50:00,VALID,916.831,VALID,0,VALID,92.836,VALID,0,VALID,19.6145,VALID,62,VALID,1.04839,
2000-10-22, 02:51:00,VALID,916.872,VALID,0,VALID,92.7585,VALID,0.0169808,VALID,19.6513,VALID,291,VALID,0.414663,
2000-10-22, 02:52:00,VALID,916.856,VALID,0,VALID,92.7839,VALID,0,VALID,19.6572,VALID,104,VALID,1.43711,
2000-10-22, 02:53:00,VALID,916.849,VALID,0,VALID,92.9403,VALID,0.0169808,VALID,19.6513,VALID,95,VALID,1.38361,
2000-10-22, 02:54:00,VALID,916.862,VALID,0,VALID,92.9518,VALID,0,VALID,19.6542,VALID,21,VALID,0.654247,
2000-10-22, 02:55:00,VALID,916.869,VALID,0,VALID,92.7,VALID,0,VALID,19.6542,VALID,209,VALID,0.310113,
2000-10-22, 02:56:00,VALID,916.874,VALID,0,VALID,92.7101,VALID,0,VALID,19.6609,VALID,115,VALID,0.321957,
2000-10-22, 02:57:00,VALID,916.877,VALID,0,VALID,92.8869,VALID,0,VALID,19.6704,VALID,95,VALID,0.564556,
2000-10-22, 02:58:00,VALID,916.854,VALID,0,VALID,93.0484,VALID,-0.0169808,VALID,19.6672,VALID,104,VALID,0.809622,
2000-10-22, 02:59:00,VALID,916.853,VALID,0,VALID,93.1984,VALID,0,VALID,19.6478,VALID,132,VALID,0.134713,
2000-10-22, 03:00:00,VALID,916.85,VALID,0,VALID,93.3192,VALID,0.0169808,VALID,19.6416,VALID,102,VALID,0.377111,
2000-10-22, 03:01:00,VALID,916.827,VALID,0,VALID,93.5418,VALID,0,VALID,19.6289,VALID,92,VALID,0.574554,
2000-10-22, 03:02:00,VALID,916.842,VALID,0,VALID,93.8699,VALID,0.0169808,VALID,19.5956,VALID,91,VALID,0.783854,
2000-10-22, 03:03:00,VALID,916.828,VALID,0,VALID,93.9105,VALID,0,VALID,19.5829,VALID,90,VALID,1.46154,
2000-10-22, 03:04:00,VALID,916.805,VALID,0,VALID,93.8126,VALID,0.0169808,VALID,19.5665,VALID,96,VALID,1.18976,
2000-10-22, 03:05:00,VALID,916.801,VALID,0,VALID,93.8101,VALID,0.0339617,VALID,19.5439,VALID,97,VALID,1.09807,
2000-10-22, 03:06:00,VALID,916.81,VALID,0,VALID,94.0937,VALID,0.0339617,VALID,19.5213,VALID,94,VALID,1.21696,
2000-10-22, 03:07:00,VALID,916.813,VALID,0,VALID,94.0428,VALID,0.0339617,VALID,19.5114,VALID,85,VALID,0.979968,
2000-10-22, 03:08:00,VALID,916.821,VALID,0,VALID,93.8342,VALID,0.0169808,VALID,19.5476,VALID,100,VALID,0.797637,
2000-10-22, 03:09:00,VALID,916.842,VALID,0,VALID,93.9169,VALID,0,VALID,19.5506,VALID,100,VALID,0.444336,
2000-10-22, 03:10:00,VALID,916.842,VALID,0,VALID,93.9105,VALID,0.0169808,VALID,19.5374,VALID,102,VALID,0.100694,
2000-10-22, 03:11:00,VALID,916.857,VALID,0,VALID,94.2729,VALID,0.0169808,VALID,19.5372,VALID,97,VALID,0.747613,
2000-10-22, 03:12:00,VALID,916.849,VALID,0,VALID,94.423,VALID,0.0169808,VALID,19.5374,VALID,93,VALID,0.782812,
2000-10-22, 03:13:00,VALID,916.844,VALID,0,VALID,94.5463,VALID,0.0169808,VALID,19.5114,VALID,89,VALID,0.927426,
2000-10-22, 03:14:00,VALID,916.834,VALID,0,VALID,94.7701,VALID,0,VALID,19.4994,VALID,100,VALID,1.0473,
2000-10-22, 03:15:00,VALID,916.82,VALID,0,VALID,94.9304,VALID,0,VALID,19.4992,VALID,102,VALID,1.19071,
2000-10-22, 03:16:00,VALID,916.804,VALID,0,VALID,94.9863,VALID,-0.0169808,VALID,19.5024,VALID,96,VALID,1.09355,
2000-10-22, 03:17:00,VALID,916.776,VALID,0,VALID,94.7104,VALID,-0.0509425,VALID,19.526,VALID,109,VALID,0.53079,
2000-10-22, 03:18:00,VALID,916.798,VALID,0,VALID,94.6392,VALID,-0.0849042,VALID,19.5392,VALID,137,VALID,0.122596,
2000-10-22, 03:19:00,VALID,916.789,VALID,0,VALID,94.0517,VALID,-0.101885,VALID,19.5456,VALID,151,VALID,0.428085,
2000-10-22, 03:20:00,VALID,916.768,VALID,0,VALID,93.7198,VALID,-0.0849042,VALID,19.5909,VALID,90,VALID,0.361779,
2000-10-22, 03:21:00,VALID,916.751,VALID,0,VALID,93.8253,VALID,-0.0679233,VALID,19.6097,VALID,96,VALID,0.0631168,
2000-10-22, 03:22:00,VALID,916.752,VALID,0,VALID,93.8457,VALID,-0.0339617,VALID,19.6421,VALID,101,VALID,0,
2000-10-22, 03:23:00,VALID,916.725,VALID,0,VALID,93.8889,VALID,-0.0849042,VALID,19.6289,VALID,82,VALID,0,
2000-10-22, 03:24:00,VALID,916.714,VALID,0,VALID,93.7961,VALID,-0.0849042,VALID,19.6334,VALID,22,VALID,0,
2000-10-22, 03:25:00,VALID,916.679,VALID,0,VALID,94.0428,VALID,-0.101885,VALID,19.6199,VALID,109,VALID,0,
2000-10-22, 03:26:00,VALID,916.65,VALID,0,VALID,94.381,VALID,-0.101885,VALID,19.6075,VALID,85,VALID,0.690905,
2000-10-22, 03:27:00,VALID,916.656,VALID,0,VALID,94.4967,VALID,-0.0509425,VALID,19.5812,VALID,91,VALID,0.650641,
2000-10-22, 03:28:00,VALID,916.626,VALID,0,VALID,94.5832,VALID,-0.0509425,VALID,19.5553,VALID,92,VALID,1.39909,
2000-10-22, 03:29:00,VALID,916.581,VALID,0,VALID,94.5794,VALID,-0.0169808,VALID,19.5424,VALID,101,VALID,0.871094,
2000-10-22, 03:30:00,VALID,916.563,VALID,0,VALID,94.6671,VALID,-0.0339617,VALID,19.5223,VALID,99,VALID,0.509457,
2000-10-22, 03:31:00,VALID,916.525,VALID,0,VALID,94.779,VALID,-0.0849042,VALID,19.5362,VALID,94,VALID,0.331826,
2000-10-22, 03:32:00,VALID,916.487,VALID,0,VALID,94.7854,VALID,-0.0509425,VALID,19.5265,VALID,87,VALID,0.51288,
2000-10-22, 03:33:00,VALID,916.501,VALID,0,VALID,94.7422,VALID,-0.0679233,VALID,19.5036,VALID,81,VALID,0.248733,